| time (UTC) | temp F | wind direction | speed MPH | gust MPH | rain 1hr in | rain 24hr in | rain mn in | humidity % | barometer mb |
| 20260906120055 | 71 | 252 | 0.0 | 0.0 | 0.00 | 0.18 | 0.18 | 89 | 1011.8 |
| 20260906114610 | 71 | 249 | 0.0 | 0.0 | 0.00 | 0.18 | 0.18 | 88 | 1011.7 |
| 20260906113057 | 71 | 249 | 0.0 | 0.0 | 0.00 | 0.18 | 0.18 | 88 | 1011.5 |
| 20260906111553 | 71 | 249 | 0.0 | 0.0 | 0.00 | 0.18 | 0.18 | 88 | 1011.5 |
| 20260906110053 | 71 | 249 | 0.0 | 0.0 | 0.00 | 0.18 | 0.18 | 88 | 1011.5 |
| 20260906104552 | 71 | 244 | 0.0 | 4.0 | 0.00 | 0.18 | 0.18 | 88 | 1011.5 |
| 20260906103051 | 71 | 239 | 0.0 | 2.0 | 0.00 | 0.18 | 0.18 | 88 | 1011.8 |
| 20260906101550 | 71 | 210 | 0.0 | 1.0 | 0.00 | 0.18 | 0.18 | 88 | 1011.4 |
| 20260906100048 | 72 | 210 | 0.0 | 2.0 | 0.00 | 0.18 | 0.18 | 88 | 1011.3 |
| 20260906094548 | 72 | 285 | 0.0 | 3.0 | 0.00 | 0.18 | 0.18 | 88 | 1011.4 |
| 20260906093046 | 72 | 283 | 3.0 | 6.0 | 0.02 | 0.18 | 0.18 | 88 | 1011.7 |
| 20260906091544 | 72 | 299 | 0.0 | 0.0 | 0.02 | 0.18 | 0.18 | 88 | 1011.6 |
| 20260906090044 | 73 | 261 | 0.0 | 3.0 | 0.02 | 0.18 | 0.18 | 87 | 1011.7 |
| 20260906084543 | 73 | 201 | 2.0 | 4.0 | 0.02 | 0.18 | 0.18 | 87 | 1012.0 |
| 20260906083043 | 73 | 163 | 0.0 | 11.0 | 0.00 | 0.16 | 0.16 | 87 | 1012.2 |
| 20260906081547 | 73 | 168 | 0.0 | 6.0 | 0.00 | 0.16 | 0.16 | 87 | 1012.2 |
| 20260906080042 | 73 | 278 | 2.0 | 12.0 | 0.14 | 0.16 | 0.16 | 87 | 1011.9 |
| 20260906074552 | 73 | 340 | 0.0 | 1.0 | 0.15 | 0.16 | 0.16 | 87 | 1011.6 |
| 20260906073038 | 73 | 70 | 0.0 | 0.0 | 0.16 | 0.16 | 0.16 | 87 | 1011.1 |
| 20260906071538 | 73 | 139 | 0.0 | 10.0 | 0.16 | 0.16 | 0.16 | 87 | 1011.5 |
| 20260906070033 | 74 | 343 | 0.0 | 4.0 | 0.02 | 0.02 | 0.02 | 86 | 1011.9 |
| 20260906064531 | 74 | 351 | 5.0 | 13.0 | 0.01 | 0.01 | 0.01 | 84 | 1011.8 |
| 20260906063030 | 74 | 87 | 1.0 | 16.0 | 0.00 | 0.00 | 0.00 | 83 | 1012.0 |
| 20260906061529 | 75 | 59 | 7.0 | 14.0 | 0.00 | 0.00 | 0.00 | 83 | 1012.3 |
| 20260906060028 | 76 | 110 | 6.0 | 16.0 | 0.00 | 0.00 | 0.00 | 82 | 1012.2 |
| 20260906054529 | 77 | 79 | 12.0 | 26.0 | 0.00 | 0.00 | 0.00 | 80 | 1012.4 |
| 20260906053023 | 76 | 65 | 8.0 | 14.0 | 0.00 | 0.00 | 0.00 | 84 | 1012.2 |
| 20260906051517 | 76 | 87 | 0.0 | 0.0 | 0.00 | 0.00 | 0.00 | 85 | 1011.2 |
| 20260906050030 | 76 | 87 | 0.0 | 0.0 | 0.00 | 0.00 | 0.00 | 85 | 1011.2 |
| 20260906044528 | 76 | 87 | 0.0 | 0.0 | 0.00 | 0.00 | 0.00 | 84 | 1011.2 |
| 20260906043014 | 76 | 87 | 0.0 | 0.0 | 0.00 | 0.00 | 0.00 | 84 | 1011.8 |
| 20260906041515 | 76 | 87 | 0.0 | 0.0 | 0.00 | 0.00 | 0.00 | 84 | 1011.8 |
| 20260906040023 | 77 | 87 | 0.0 | 0.0 | 0.00 | 0.00 | 0.00 | 83 | 1011.8 |
| 20260906034515 | 77 | 86 | 0.0 | 0.0 | 0.00 | 0.00 | 0.00 | 83 | 1011.8 |
| 20260906033030 | 77 | 180 | 0.0 | 0.0 | 0.00 | 0.00 | 0.00 | 83 | 1011.8 |
| 20260906031514 | 78 | 88 | 0.0 | 0.0 | 0.00 | 0.00 | 0.00 | 82 | 1011.8 |
| 20260906030014 | 78 | 55 | 0.0 | 0.0 | 0.00 | 0.00 | 0.00 | 82 | 1011.4 |
| 20260906024510 | 79 | 54 | 0.0 | 0.0 | 0.00 | 0.00 | 0.00 | 82 | 1011.3 |
| 20260906023011 | 79 | 180 | 1.0 | 6.0 | 0.00 | 0.00 | 0.00 | 81 | 1011.0 |
| 20260906021510 | 80 | 72 | 0.0 | 0.0 | 0.00 | 0.00 | 0.00 | 79 | 1010.5 |
| 20260906020009 | 81 | 72 | 0.0 | 0.0 | 0.00 | 0.00 | 0.00 | 79 | 1010.4 |
| 20260906014508 | 81 | 72 | 0.0 | 0.0 | 0.00 | 0.00 | 0.00 | 77 | 1010.3 |
| 20260906013012 | 83 | 72 | 0.0 | 0.0 | 0.00 | 0.00 | 0.00 | 76 | 1010.6 |
| 20260906011509 | 84 | 72 | 0.0 | 4.0 | 0.00 | 0.00 | 0.00 | 72 | 1010.6 |
| 20260906010007 | 85 | 71 | 3.0 | 8.0 | 0.00 | 0.00 | 0.00 | 70 | 1010.5 |
| 20260906004506 | 84 | 63 | 3.0 | 5.0 | 0.00 | 0.00 | 0.00 | 72 | 1010.2 |
| 20260906003006 | 85 | 70 | 3.0 | 7.0 | 0.00 | 0.00 | 0.00 | 74 | 1010.1 |
| 20260906001505 | 87 | 301 | 0.0 | 2.0 | 0.00 | 0.00 | 0.00 | 69 | 1010.0 |
| 20260906000004 | 89 | 301 | 0.0 | 0.0 | 0.00 | 0.00 | 0.00 | 65 | 1010.1 |
| 20260905234506 | 92 | 301 | 0.0 | 0.0 | 0.00 | 0.00 | 0.00 | 60 | 1010.2 |
| 20260905233003 | 95 | 301 | 0.0 | 4.0 | 0.00 | 0.00 | 0.00 | 55 | 1010.1 |
| 20260905231503 | 96 | 281 | 1.0 | 9.0 | 0.00 | 0.00 | 0.00 | 52 | 1010.3 |
| 20260905230004 | 97 | 297 | 1.0 | 8.0 | 0.00 | 0.00 | 0.00 | 53 | 1010.2 |
| 20260905224504 | 97 | 257 | 0.0 | 4.0 | 0.00 | 0.00 | 0.00 | 50 | 1010.0 |
| 20260905223100 | 98 | 313 | 0.0 | 4.0 | 0.00 | 0.00 | 0.00 | 49 | 1010.2 |
| 20260905221605 | 98 | 274 | 0.0 | 6.0 | 0.00 | 0.00 | 0.00 | 49 | 1010.3 |
| 20260905220108 | 97 | 322 | 2.0 | 5.0 | 0.00 | 0.00 | 0.00 | 49 | 1010.3 |
| 20260905214557 | 98 | 285 | 1.0 | 6.0 | 0.00 | 0.00 | 0.00 | 49 | 1010.4 |
| 20260905213056 | 97 | 25 | 0.0 | 9.0 | 0.00 | 0.00 | 0.00 | 48 | 1010.4 |
| 20260905211627 | 97 | 303 | 5.0 | 8.0 | 0.00 | 0.00 | 0.00 | 49 | 1010.5 |
| 20260905210057 | 98 | 20 | 2.0 | 9.0 | 0.00 | 0.00 | 0.00 | 47 | 1010.4 |
| 20260905204557 | 97 | 293 | 5.0 | 8.0 | 0.00 | 0.00 | 0.00 | 48 | 1010.6 |
| 20260905203112 | 98 | 304 | 5.0 | 9.0 | 0.00 | 0.00 | 0.00 | 49 | 1010.7 |
| 20260905201551 | 97 | 290 | 3.0 | 4.0 | 0.00 | 0.00 | 0.00 | 51 | 1011.0 |
| 20260905200055 | 98 | 64 | 2.0 | 8.0 | 0.00 | 0.01 | 0.00 | 51 | 1011.1 |
| 20260905194544 | 98 | 274 | 3.0 | 9.0 | 0.00 | 0.01 | 0.00 | 49 | 1011.3 |
| 20260905193042 | 97 | 308 | 4.0 | 10.0 | 0.00 | 0.01 | 0.00 | 50 | 1011.5 |
| 20260905191539 | 97 | 332 | 0.0 | 8.0 | 0.00 | 0.01 | 0.00 | 54 | 1011.8 |
| 20260905190038 | 96 | 76 | 3.0 | 7.0 | 0.00 | 0.01 | 0.00 | 53 | 1012.1 |
| 20260905184534 | 95 | 245 | 1.0 | 4.0 | 0.00 | 0.01 | 0.00 | 58 | 1012.2 |
| 20260905183032 | 94 | 325 | 1.0 | 6.0 | 0.00 | 0.01 | 0.00 | 57 | 1012.5 |
| 20260905181529 | 95 | 278 | 1.0 | 8.0 | 0.00 | 0.01 | 0.00 | 56 | 1012.6 |
| 20260905180028 | 94 | 295 | 2.0 | 6.0 | 0.00 | 0.01 | 0.00 | 60 | 1012.8 |
| 20260905174534 | 95 | 295 | 0.0 | 7.0 | 0.00 | 0.01 | 0.00 | 57 | 1012.7 |
| 20260905173027 | 94 | 167 | 0.0 | 4.0 | 0.00 | 0.01 | 0.00 | 59 | 1012.8 |
| 20260905171534 | 93 | 151 | 2.0 | 5.0 | 0.00 | 0.01 | 0.00 | 61 | 1013.1 |
| 20260905170018 | 93 | 250 | 1.0 | 4.0 | 0.00 | 0.01 | 0.00 | 65 | 1013.3 |
| 20260905164513 | 91 | 11 | 0.0 | 4.0 | 0.00 | 0.01 | 0.00 | 64 | 1013.5 |
| 20260905163009 | 89 | 276 | 1.0 | 6.0 | 0.00 | 0.01 | 0.00 | 68 | 1013.8 |
| 20260905161506 | 88 | 317 | 0.0 | 6.0 | 0.00 | 0.01 | 0.00 | 70 | 1013.9 |
| 20260905160006 | 87 | 60 | 1.0 | 4.0 | 0.00 | 0.01 | 0.00 | 70 | 1014.2 |
| 20260905154602 | 85 | 322 | 1.0 | 6.0 | 0.00 | 0.01 | 0.00 | 73 | 1014.3 |
| 20260905153056 | 84 | 327 | 0.0 | 0.0 | 0.00 | 0.01 | 0.00 | 78 | 1014.2 |
| 20260905151602 | 82 | 272 | 0.0 | 0.0 | 0.00 | 0.01 | 0.00 | 80 | 1014.3 |
| 20260905150048 | 81 | 227 | 0.0 | 0.0 | 0.00 | 0.01 | 0.00 | 83 | 1014.3 |
| 20260905144544 | 79 | 218 | 0.0 | 0.0 | 0.00 | 0.01 | 0.00 | 85 | 1014.6 |
| 20260905143041 | 77 | 1 | 0.0 | 0.0 | 0.00 | 0.01 | 0.00 | 87 | 1014.6 |
| 20260905141542 | 76 | 1 | 0.0 | 0.0 | 0.00 | 0.01 | 0.00 | 88 | 1014.8 |
| 20260905140036 | 75 | 4 | 0.0 | 0.0 | 0.00 | 0.01 | 0.00 | 89 | 1014.7 |
| 20260905134533 | 74 | 180 | 0.0 | 0.0 | 0.00 | 0.01 | 0.00 | 89 | 1014.7 |
| 20260905133027 | 74 | 180 | 0.0 | 0.0 | 0.00 | 0.01 | 0.00 | 89 | 1014.7 |
| 20260905131527 | 73 | 5 | 0.0 | 0.0 | 0.00 | 0.01 | 0.00 | 89 | 1014.7 |
| 20260905130026 | 73 | 4 | 0.0 | 0.0 | 0.00 | 0.01 | 0.00 | 89 | 1014.7 |
| 20260905124536 | 72 | 4 | 0.0 | 0.0 | 0.00 | 0.01 | 0.00 | 89 | 1014.6 |
| 20260905123023 | 72 | 4 | 0.0 | 0.0 | 0.00 | 0.01 | 0.00 | 89 | 1014.5 |
| 20260905121522 | 71 | 4 | 0.0 | 0.0 | 0.00 | 0.01 | 0.00 | 89 | 1014.3 |